カタログに戻る

GOES 5

運用中気象GEO
NORAD 12472·PAYLOAD·🇺🇸 United States

打ち上げ May 22, 1981 から Cape Canaveral Space Force Station

Loading…

TLE

最新Source: Space-Track

元期: Sep 14, 2026, 09:48 UTC

1 12472U 81049A   26257.40836388  .00000055  00000-0  00000-0 0  9990
2 12472   9.2054 315.1404 0003965 309.8528 103.3945  1.00226724123740

AllMySatでGOES 5をリアルタイム追跡

Download on the App Store